DEORBITSAIL

导读

DEORBITSAIL(DeOrbitSail)是英国萨里大学萨里太空中心研制的技术验证立方星,2015年7月10日于印度萨迪什·达万航天中心发射。这颗3U立方星重约7kg,旨在验证低成本超轻太阳帆作为拖曳帆,帮助失效卫星离轨再入大气层的技术,由欧盟第七框架计划资助,是人类应对近地轨道空间碎片问题的创新探索,入轨后卫星出现故障,未能完成完整试验。

基本信息
目录编号:
40719
目录名称:
DEORBITSAIL
国际标识:
2015-032E
轨道中心:
EARTH
卫星名称:
DEORBITSAIL
卫星全名:
--
卫星状态:
在轨 (已飞行4074 天)
发射日期:
2015-07-10 UTC
国别 :
英国 (GB)
星等 :
--
轨道信息
数据来源 国际轨道数据
星历时间: 2026-09-03T15:30:40+0800
23小时前
查看轨道信息
半长轴: 6930.226km
偏心率: 0.0011882
轨道倾角: 97.581°
近地点辐角 338.446°
升交点赤经 101.686°
平近点角 21.626°
近地点: 543.854km
远地点: 560.324km
周期: 95.693分钟
每日圈数: 15.048101
详细信息
使用方式:
暂无
2D轨道图
3D轨道图
轨道高度分析图
轨道倾角分析图
轨道综合分析图
查看轨道综合分析图